Simultaneous Nadir Overpasses (SNOs) Predictions

Prediction of SNOs between AURA and NPP Satellite Orbit:

Table of predicted SNOs for the next 14.0 days since TLE Epoch: 7/4/2014
Index Date (AURA) Time (AURA) Lat,Lon (AURA) SZA (AURA ) Date (NPP) Time (NPP) Lat,Lon (NPP) SZA (NPP ) Distance(km) Time Diff (sec)
1 07/06/2014 07:19:28 76.16, -48.20 74.64 07/06/2014 07:19:17 76.15, -48.27 74.67 2.15 11
2 07/06/2014 08:08:38 -77.00, 122.30 106.36 07/06/2014 08:09:44 -76.99, 122.26 106.41 1.26 66
3 07/08/2014 22:46:38 -75.83,-100.99 104.68 07/08/2014 22:45:40 -75.84,-100.89 104.66 2.97 58
4 07/08/2014 23:35:50 76.48, 68.71 74.57 07/08/2014 23:36:10 76.48, 68.68 74.56 0.99 20
5 07/11/2014 15:03:02 -76.03, 15.50 104.56 07/11/2014 15:02:36 -76.03, 15.52 104.54 0.54 26
6 07/11/2014 15:52:14 76.67,-174.75 74.69 07/11/2014 15:53:06 76.66,-174.86 74.68 2.99 52
7 07/14/2014 06:30:13 75.42, -38.04 76.54 07/14/2014 06:29:02 75.43, -38.00 76.58 1.31 71
8 07/14/2014 07:19:22 -76.35, 132.39 104.54 07/14/2014 07:19:28 -76.35, 132.43 104.55 0.95 6
9 07/16/2014 22:46:36 75.61, 78.39 76.74 07/16/2014 22:45:58 75.61, 78.35 76.79 1.40 38




NCC Satellite Simultaneous Nadir Overpasses (SNOs) Prediction Service
